| time (UTC) | temp F | wind direction | speed knots | gust knots | rain 1hr in | rain 24hr in | rain mn in | humidity % | barometer mb |
| 20260504194627 | 74 | 169 | 1.7 | 3.5 | 0.00 | 0.00 | 0.00 | 30 | 1011.1 |
| 20260504193627 | 75 | 127 | 2.6 | 4.3 | 0.00 | 0.00 | 0.00 | 30 | 1011.0 |
| 20260504192629 | 74 | 283 | 0.0 | 2.6 | 0.00 | 0.00 | 0.00 | 31 | 1011.3 |
| 20260504191627 | 73 | 180 | 2.6 | 5.2 | 0.00 | 0.00 | 0.00 | 31 | 1011.4 |
| 20260504190628 | 74 | 257 | 0.9 | 5.2 | 0.00 | 0.00 | 0.00 | 31 | 1011.5 |
| 20260504185628 | 74 | 147 | 3.5 | 6.1 | 0.00 | 0.00 | 0.00 | 30 | 1011.8 |
| 20260504184627 | 73 | 177 | 2.6 | 5.2 | 0.00 | 0.00 | 0.00 | 31 | 1012.0 |
| 20260504183627 | 72 | 294 | 1.7 | 3.5 | 0.00 | 0.00 | 0.00 | 31 | 1012.0 |
| 20260504180727 | 72 | 185 | 0.9 | 3.5 | 0.00 | 0.00 | 0.00 | 32 | 1012.5 |
| 20260504175728 | 72 | 186 | 2.6 | 5.2 | 0.00 | 0.00 | 0.00 | 32 | 1012.8 |
| 20260504174729 | 71 | 155 | 1.7 | 6.1 | 0.00 | 0.00 | 0.00 | 33 | 1012.7 |
| 20260504173728 | 71 | 180 | 0.9 | 1.7 | 0.00 | 0.00 | 0.00 | 33 | 1012.9 |
| 20260504172728 | 71 | 134 | 2.6 | 3.5 | 0.00 | 0.00 | 0.00 | 33 | 1013.0 |
| 20260504171728 | 71 | 261 | 1.7 | 6.1 | 0.00 | 0.00 | 0.00 | 32 | 1013.0 |
| 20260504150827 | 64 | 127 | 1.7 | 3.5 | 0.00 | 0.00 | 0.00 | 43 | 1014.7 |
| 20260504140928 | 59 | 255 | 0.0 | 2.6 | 0.00 | 0.00 | 0.00 | 54 | 1015.0 |
| 20260504100130 | 45 | 180 | 0.9 | 1.7 | 0.00 | 0.00 | 0.00 | 64 | 1015.4 |
| 20260504081426 | 45 | 202 | 0.0 | 0.0 | 0.00 | 0.00 | 0.00 | 59 | 1015.3 |
| 20260504080428 | 45 | 180 | 0.0 | 0.0 | 0.00 | 0.00 | 0.00 | 60 | 1015.3 |
| 20260504045829 | 46 | 180 | 0.0 | 0.0 | 0.00 | 0.00 | 0.00 | 61 | 1015.1 |
| 20260504044927 | 46 | 173 | 1.7 | 2.6 | 0.00 | 0.00 | 0.00 | 62 | 1015.2 |
| 20260504042928 | 46 | 225 | 0.0 | 0.9 | 0.00 | 0.00 | 0.00 | 60 | 1015.0 |
| 20260504041926 | 46 | 149 | 0.0 | 0.9 | 0.00 | 0.00 | 0.00 | 61 | 1014.9 |
| 20260504035935 | 47 | 180 | 0.0 | 0.9 | 0.00 | 0.00 | 0.00 | 57 | 1014.8 |
| 20260504034935 | 48 | 180 | 0.0 | 0.9 | 0.00 | 0.00 | 0.00 | 55 | 1014.7 |
| 20260504033936 | 48 | 157 | 0.0 | 0.0 | 0.00 | 0.00 | 0.00 | 55 | 1014.7 |
| 20260504032936 | 48 | 197 | 1.7 | 3.5 | 0.00 | 0.00 | 0.00 | 56 | 1014.6 |
| 20260504031036 | 50 | 127 | 0.0 | 0.9 | 0.00 | 0.00 | 0.00 | 51 | 1014.6 |
| 20260504030036 | 50 | 225 | 0.0 | 0.0 | 0.00 | 0.00 | 0.00 | 49 | 1014.5 |
| 20260504024035 | 50 | 277 | 0.0 | 1.7 | 0.00 | 0.00 | 0.00 | 50 | 1014.6 |
| 20260504023037 | 50 | 180 | 0.0 | 0.0 | 0.00 | 0.00 | 0.00 | 49 | 1014.6 |
| 20260504022036 | 50 | 225 | 0.0 | 0.0 | 0.00 | 0.00 | 0.00 | 49 | 1014.7 |
| 20260504021033 | 51 | 165 | 0.0 | 1.7 | 0.00 | 0.00 | 0.00 | 47 | 1014.6 |
| 20260504020037 | 51 | 157 | 0.0 | 0.0 | 0.00 | 0.00 | 0.00 | 44 | 1014.6 |
| 20260504015034 | 51 | 157 | 0.0 | 0.9 | 0.00 | 0.00 | 0.00 | 44 | 1014.5 |
| 20260504014035 | 51 | 180 | 0.0 | 0.9 | 0.00 | 0.00 | 0.00 | 45 | 1014.5 |
| 20260504012034 | 52 | 226 | 0.0 | 0.0 | 0.00 | 0.00 | 0.00 | 43 | 1014.3 |
| 20260504011035 | 52 | 157 | 0.0 | 0.0 | 0.00 | 0.00 | 0.00 | 42 | 1014.2 |
| 20260504005037 | 53 | 135 | 0.0 | 0.9 | 0.00 | 0.00 | 0.00 | 42 | 1013.9 |
| 20260504004135 | 53 | 135 | 0.0 | 0.0 | 0.00 | 0.00 | 0.00 | 41 | 1013.9 |
| 20260504003136 | 53 | 180 | 0.0 | 0.0 | 0.00 | 0.00 | 0.00 | 41 | 1013.9 |
| 20260504001234 | 55 | 180 | 0.0 | 0.0 | 0.00 | 0.00 | 0.00 | 38 | 1013.6 |
| 20260504000235 | 56 | 225 | 0.0 | 0.0 | 0.00 | 0.00 | 0.00 | 37 | 1013.5 |
| 20260503235334 | 56 | 151 | 0.0 | 2.6 | 0.00 | 0.00 | 0.00 | 36 | 1013.4 |
| 20260503234337 | 57 | 127 | 0.9 | 2.6 | 0.00 | 0.00 | 0.00 | 34 | 1013.4 |
| 20260503233336 | 57 | 315 | 0.0 | 1.7 | 0.00 | 0.00 | 0.00 | 35 | 1013.2 |
| 20260503232433 | 58 | 308 | 0.0 | 0.9 | 0.00 | 0.00 | 0.00 | 34 | 1013.3 |
| 20260503231436 | 58 | 259 | 0.0 | 0.9 | 0.00 | 0.00 | 0.00 | 32 | 1013.3 |
| 20260503230436 | 59 | 330 | 1.7 | 3.5 | 0.00 | 0.00 | 0.00 | 33 | 1013.1 |
| 20260503225435 | 59 | 315 | 1.7 | 2.6 | 0.00 | 0.00 | 0.00 | 31 | 1013.1 |
| 20260503224437 | 60 | 300 | 0.9 | 1.7 | 0.00 | 0.00 | 0.00 | 31 | 1013.0 |
| 20260503222533 | 60 | 292 | 0.0 | 1.7 | 0.00 | 0.00 | 0.00 | 30 | 1013.0 |
| 20260503221538 | 60 | 301 | 1.7 | 2.6 | 0.00 | 0.00 | 0.00 | 30 | 1013.0 |
| 20260503220634 | 61 | 314 | 2.6 | 3.5 | 0.00 | 0.00 | 0.00 | 28 | 1013.0 |
| 20260503214634 | 61 | 319 | 3.5 | 5.2 | 0.00 | 0.00 | 0.00 | 27 | 1013.0 |
| 20260503213637 | 62 | 257 | 0.0 | 0.9 | 0.00 | 0.00 | 0.00 | 28 | 1012.9 |
| 20260503212634 | 61 | 287 | 0.9 | 2.6 | 0.00 | 0.00 | 0.00 | 29 | 1013.0 |
| 20260503211635 | 61 | 277 | 1.7 | 6.1 | 0.00 | 0.00 | 0.00 | 29 | 1012.9 |
| 20260503210636 | 61 | 303 | 1.7 | 3.5 | 0.00 | 0.00 | 0.00 | 30 | 1013.0 |
| 20260503205634 | 60 | 271 | 2.6 | 5.2 | 0.00 | 0.00 | 0.00 | 30 | 1013.1 |
| 20260503204634 | 60 | 305 | 2.6 | 4.3 | 0.00 | 0.00 | 0.00 | 30 | 1013.1 |
| 20260503203636 | 60 | 300 | 2.6 | 5.2 | 0.00 | 0.00 | 0.00 | 29 | 1013.2 |
| 20260503202634 | 60 | 314 | 3.5 | 4.3 | 0.00 | 0.00 | 0.00 | 29 | 1013.2 |
| 20260503201634 | 60 | 274 | 1.7 | 2.6 | 0.00 | 0.00 | 0.00 | 30 | 1013.1 |
| 20260503200635 | 60 | 276 | 2.6 | 7.8 | 0.00 | 0.00 | 0.00 | 30 | 1013.2 |